owner,sensor,date,latitude,longitude,vertical_datum,wind_speed,wind_to_direction,wind_speed_of_gust,qcFlag 
TCOON,ioos:station:TCOON:009:1,2009-04-01T00:00:00Z,27.8398,-97.0727,0.0,6.2,23.0,8.0,'11111222,11111222,11111222' 
TCOON,ioos:station:TCOON:009:1,2009-04-01T01:00:00Z,27.8398,-97.0727,0.0,3.1,41.0,4.1,'11111222,11111222,11111222' 
TCOON,ioos:station:TCOON:009:1,2009-04-01T03:00:00Z,27.8398,-97.0727,0.0,4.4,37.0,5.2,'11111222,11111222,11111222' 
TCOON,ioos:station:TCOON:009:1,2009-04-01T04:00:00Z,27.8398,-97.0727,0.0,5.6,46.0,7.2,'11111222,11111222,11111222' 
TCOON,ioos:station:TCOON:009:1,2009-04-01T05:00:00Z,27.8398,-97.0727,0.0,6.7,58.0,8.0,'11111222,11111222,11111222' 
TCOON,ioos:station:TCOON:009:1,2009-04-01T06:00:00Z,27.8398,-97.0727,0.0,6.5,64.0,7.7,'11111222,11111222,11111222' 
TCOON,ioos:station:TCOON:009:1,2009-04-01T07:00:00Z,27.8398,-97.0727,0.0,6.5,70.0,7.7,'11111222,11111222,11111222' 
TCOON,ioos:station:TCOON:009:1,2009-04-01T08:00:00Z,27.8398,-97.0727,0.0,4.9,90.0,6.0,'11111222,11111222,11111222' 
TCOON,ioos:station:TCOON:009:1,2009-04-01T09:00:00Z,27.8398,-97.0727,0.0,5.6,84.0,7.0,'11111222,11111222,11111222' 
TCOON,ioos:station:TCOON:009:1,2009-04-01T10:00:00Z,27.8398,-97.0727,0.0,4.9,73.0,5.9,'11111222,11111222,11111222' 
TCOON,ioos:station:TCOON:009:1,2009-04-01T11:00:00Z,27.8398,-97.0727,0.0,3.8,95.0,5.8,'11111222,11111222,11111222' 
TCOON,ioos:station:TCOON:009:1,2009-04-01T12:00:00Z,27.8398,-97.0727,0.0,5.9,86.0,7.3,'11111222,11111222,11111222' 
TCOON,ioos:station:TCOON:009:1,2009-04-01T13:00:00Z,27.8398,-97.0727,0.0,7.6,94.0,9.9,'11111222,11111222,11111222' 
TCOON,ioos:station:TCOON:009:1,2009-04-01T14:00:00Z,27.8398,-97.0727,0.0,7.9,102.0,10.9,'11111222,11111222,11111222' 
TCOON,ioos:station:TCOON:009:1,2009-04-01T15:00:00Z,27.8398,-97.0727,0.0,8.0,116.0,10.3,'11111222,11111222,11111222' 
TCOON,ioos:station:TCOON:009:1,2009-04-01T16:00:00Z,27.8398,-97.0727,0.0,9.2,129.0,11.8,'11111222,11111222,11111222' 
TCOON,ioos:station:TCOON:009:1,2009-04-01T17:00:00Z,27.8398,-97.0727,0.0,8.5,119.0,12.1,'11111222,11111222,11111222' 
TCOON,ioos:station:TCOON:009:1,2009-04-01T18:00:00Z,27.8398,-97.0727,0.0,7.4,131.0,9.7,'11111222,11111222,11111222' 
TCOON,ioos:station:TCOON:009:1,2009-04-01T19:00:00Z,27.8398,-97.0727,0.0,5.2,145.0,8.2,'11111222,11111222,11111222' 
TCOON,ioos:station:TCOON:009:1,2009-04-01T20:00:00Z,27.8398,-97.0727,0.0,3.3,156.0,5.7,'11111222,11111222,11111222' 
TCOON,ioos:station:TCOON:009:1,2009-04-01T21:00:00Z,27.8398,-97.0727,0.0,4.5,143.0,7.1,'11111222,11111222,11111222' 
TCOON,ioos:station:TCOON:009:1,2009-04-01T22:00:00Z,27.8398,-97.0727,0.0,6.4,150.0,10.1,'11111222,11111222,11111222' 
TCOON,ioos:station:TCOON:009:1,2009-04-01T23:00:00Z,27.8398,-97.0727,0.0,3.2,152.0,5.1,'11111222,11111222,11111222' 
TCOON,ioos:station:TCOON:009:1,2009-04-02T00:00:00Z,27.8398,-97.0727,0.0,3.9,150.0,6.8,'11111222,11111222,11111222' 
TCOON,ioos:station:TCOON:009:1,2009-04-02T01:00:00Z,27.8398,-97.0727,0.0,3.8,141.0,6.1,'11111222,11111222,11111222' 
TCOON,ioos:station:TCOON:009:1,2009-04-02T02:00:00Z,27.8398,-97.0727,0.0,3.9,144.0,6.0,'11111222,11111222,11111222' 
TCOON,ioos:station:TCOON:009:1,2009-04-02T03:00:00Z,27.8398,-97.0727,0.0,5.1,139.0,7.6,'11111222,11111222,11111222' 
TCOON,ioos:station:TCOON:009:1,2009-04-02T04:00:00Z,27.8398,-97.0727,0.0,1.8,97.0,3.2,'11111222,11111222,11111222' 
TCOON,ioos:station:TCOON:009:1,2009-04-02T05:00:00Z,27.8398,-97.0727,0.0,3.3,106.0,4.4,'11111222,11111222,11111222' 
TCOON,ioos:station:TCOON:009:1,2009-04-02T06:00:00Z,27.8398,-97.0727,0.0,5.1,173.0,8.7,'11111222,11111222,11111222' 
TCOON,ioos:station:TCOON:009:1,2009-04-02T07:00:00Z,27.8398,-97.0727,0.0,6.4,172.0,9.5,'11111222,11111222,11111222' 
TCOON,ioos:station:TCOON:009:1,2009-04-02T08:00:00Z,27.8398,-97.0727,0.0,6.2,175.0,9.5,'11111222,11111222,11111222' 
TCOON,ioos:station:TCOON:009:1,2009-04-02T09:00:00Z,27.8398,-97.0727,0.0,4.3,197.0,7.2,'11111222,11111222,11111222' 
TCOON,ioos:station:TCOON:009:1,2009-04-02T10:00:00Z,27.8398,-97.0727,0.0,4.3,191.0,6.4,'11111222,11111222,11111222' 
TCOON,ioos:station:TCOON:009:1,2009-04-02T11:00:00Z,27.8398,-97.0727,0.0,3.1,205.0,5.4,'11111222,11111222,11111222' 
TCOON,ioos:station:TCOON:009:1,2009-04-02T12:00:00Z,27.8398,-97.0727,0.0,3.7,228.0,5.1,'11111222,11111222,11111222' 
TCOON,ioos:station:TCOON:009:1,2009-04-02T13:00:00Z,27.8398,-97.0727,0.0,2.9,249.0,4.4,'11111222,11111222,11111222' 
TCOON,ioos:station:TCOON:009:1,2009-04-02T14:00:00Z,27.8398,-97.0727,0.0,6.4,289.0,7.8,'11111222,11111222,11111222' 
TCOON,ioos:station:TCOON:009:1,2009-04-02T15:00:00Z,27.8398,-97.0727,0.0,8.2,328.0,10.5,'11111222,11111222,11111222' 
TCOON,ioos:station:TCOON:009:1,2009-04-02T16:00:00Z,27.8398,-97.0727,0.0,9.8,336.0,12.3,'11111222,11111222,11111222' 
TCOON,ioos:station:TCOON:009:1,2009-04-02T17:00:00Z,27.8398,-97.0727,0.0,12.8,321.0,17.1,'11111222,11111222,11111222' 
TCOON,ioos:station:TCOON:009:1,2009-04-02T18:00:00Z,27.8398,-97.0727,0.0,12.3,311.0,16.7,'11111222,11111222,11111222' 
TCOON,ioos:station:TCOON:009:1,2009-04-02T19:00:00Z,27.8398,-97.0727,0.0,12.2,309.0,16.7,'11111222,11111222,11111222' 
TCOON,ioos:station:TCOON:009:1,2009-04-02T20:00:00Z,27.8398,-97.0727,0.0,11.8,317.0,14.3,'11111222,11111222,11111222' 
TCOON,ioos:station:TCOON:009:1,2009-04-02T21:00:00Z,27.8398,-97.0727,0.0,11.2,299.0,13.8,'11111222,11111222,11111222' 
TCOON,ioos:station:TCOON:009:1,2009-04-02T22:00:00Z,27.8398,-97.0727,0.0,10.0,341.0,12.3,'11111222,11111222,11111222' 
TCOON,ioos:station:TCOON:009:1,2009-04-02T23:00:00Z,27.8398,-97.0727,0.0,10.0,335.0,12.3,'11111222,11111222,11111222' 
TCOON,ioos:station:TCOON:009:1,2009-04-03T00:00:00Z,27.8398,-97.0727,0.0,7.3,336.0,9.1,'11111222,11111222,11111222' 
TCOON,ioos:station:TCOON:009:1,2009-04-03T01:00:00Z,27.8398,-97.0727,0.0,5.6,350.0,6.9,'11111222,11111222,11111222' 
TCOON,ioos:station:TCOON:009:1,2009-04-03T02:00:00Z,27.8398,-97.0727,0.0,4.7,4.0,6.2,'11111222,11111222,11111222' 
TCOON,ioos:station:TCOON:009:1,2009-04-03T03:00:00Z,27.8398,-97.0727,0.0,5.6,17.0,7.4,'11111222,11111222,11111222' 
TCOON,ioos:station:TCOON:009:1,2009-04-03T04:00:00Z,27.8398,-97.0727,0.0,5.3,26.0,6.6,'11111222,11111222,11111222' 
TCOON,ioos:station:TCOON:009:1,2009-04-03T05:00:00Z,27.8398,-97.0727,0.0,6.7,22.0,9.5,'11111222,11111222,11111222' 
TCOON,ioos:station:TCOON:009:1,2009-04-03T06:00:00Z,27.8398,-97.0727,0.0,4.3,42.0,5.5,'11111222,11111222,11111222' 
TCOON,ioos:station:TCOON:009:1,2009-04-03T07:00:00Z,27.8398,-97.0727,0.0,4.3,39.0,5.8,'11111222,11111222,11111222' 
TCOON,ioos:station:TCOON:009:1,2009-04-03T08:00:00Z,27.8398,-97.0727,0.0,5.6,46.0,6.6,'11111222,11111222,11111222' 
TCOON,ioos:station:TCOON:009:1,2009-04-03T09:00:00Z,27.8398,-97.0727,0.0,6.5,66.0,7.4,'11111222,11111222,11111222' 
TCOON,ioos:station:TCOON:009:1,2009-04-03T10:00:00Z,27.8398,-97.0727,0.0,7.1,75.0,8.5,'11111222,11111222,11111222' 
TCOON,ioos:station:TCOON:009:1,2009-04-03T12:00:00Z,27.8398,-97.0727,0.0,6.7,72.0,7.4,'11111222,11111222,11111222' 
TCOON,ioos:station:TCOON:009:1,2009-04-03T13:00:00Z,27.8398,-97.0727,0.0,4.9,83.0,5.9,'11111222,11111222,11111222' 
TCOON,ioos:station:TCOON:009:1,2009-04-03T14:00:00Z,27.8398,-97.0727,0.0,3.8,96.0,4.6,'11111222,11111222,11111222' 
TCOON,ioos:station:TCOON:009:1,2009-04-03T15:00:00Z,27.8398,-97.0727,0.0,5.1,80.0,6.2,'11111222,11111222,11111222' 
TCOON,ioos:station:TCOON:009:1,2009-04-03T16:00:00Z,27.8398,-97.0727,0.0,4.3,90.0,5.9,'11111222,11111222,11111222' 
TCOON,ioos:station:TCOON:009:1,2009-04-03T17:00:00Z,27.8398,-97.0727,0.0,4.3,97.0,5.9,'11111222,11111222,11111222' 
TCOON,ioos:station:TCOON:009:1,2009-04-03T18:00:00Z,27.8398,-97.0727,0.0,4.7,118.0,7.6,'11111222,11111222,11111222' 
TCOON,ioos:station:TCOON:009:1,2009-04-03T19:00:00Z,27.8398,-97.0727,0.0,5.0,111.0,6.8,'11111222,11111222,11111222' 
TCOON,ioos:station:TCOON:009:1,2009-04-03T20:00:00Z,27.8398,-97.0727,0.0,5.1,112.0,7.8,'11111222,11111222,11111222' 
TCOON,ioos:station:TCOON:009:1,2009-04-03T21:00:00Z,27.8398,-97.0727,0.0,5.9,107.0,8.2,'11111222,11111222,11111222' 
TCOON,ioos:station:TCOON:009:1,2009-04-03T22:00:00Z,27.8398,-97.0727,0.0,6.6,123.0,8.4,'11111222,11111222,11111222' 
TCOON,ioos:station:TCOON:009:1,2009-04-03T23:00:00Z,27.8398,-97.0727,0.0,4.6,139.0,6.9,'11111222,11111222,11111222' 
TCOON,ioos:station:TCOON:009:1,2009-04-04T00:00:00Z,27.8398,-97.0727,0.0,4.5,133.0,6.2,'11111222,11111222,11111222' 
TCOON,ioos:station:TCOON:009:1,2009-04-04T01:00:00Z,27.8398,-97.0727,0.0,4.4,127.0,5.7,'11111222,11111222,11111222' 
TCOON,ioos:station:TCOON:009:1,2009-04-04T02:00:00Z,27.8398,-97.0727,0.0,4.0,130.0,5.0,'11111222,11111222,11111222' 
TCOON,ioos:station:TCOON:009:1,2009-04-04T03:00:00Z,27.8398,-97.0727,0.0,3.5,134.0,5.0,'11111222,11111222,11111222' 
TCOON,ioos:station:TCOON:009:1,2009-04-04T04:00:00Z,27.8398,-97.0727,0.0,3.3,139.0,4.6,'11111222,11111222,11111222' 
TCOON,ioos:station:TCOON:009:1,2009-04-04T05:00:00Z,27.8398,-97.0727,0.0,2.5,139.0,4.3,'11111222,11111222,11111222' 
TCOON,ioos:station:TCOON:009:1,2009-04-04T06:00:00Z,27.8398,-97.0727,0.0,2.5,134.0,3.6,'11111222,11111222,11111222' 
TCOON,ioos:station:TCOON:009:1,2009-04-04T07:00:00Z,27.8398,-97.0727,0.0,2.4,143.0,3.5,'11111222,11111222,11111222' 
TCOON,ioos:station:TCOON:009:1,2009-04-04T08:00:00Z,27.8398,-97.0727,0.0,3.1,149.0,5.6,'11111222,11111222,11111222' 
TCOON,ioos:station:TCOON:009:1,2009-04-04T09:00:00Z,27.8398,-97.0727,0.0,3.8,153.0,5.5,'11111222,11111222,11111222' 
TCOON,ioos:station:TCOON:009:1,2009-04-04T10:00:00Z,27.8398,-97.0727,0.0,4.1,150.0,6.0,'11111222,11111222,11111222' 
TCOON,ioos:station:TCOON:009:1,2009-04-04T11:00:00Z,27.8398,-97.0727,0.0,3.9,155.0,5.9,'11111222,11111222,11111222' 
TCOON,ioos:station:TCOON:009:1,2009-04-04T12:00:00Z,27.8398,-97.0727,0.0,3.8,156.0,5.9,'11111222,11111222,11111222' 
TCOON,ioos:station:TCOON:009:1,2009-04-04T13:00:00Z,27.8398,-97.0727,0.0,3.5,160.0,5.9,'11111222,11111222,11111222' 
TCOON,ioos:station:TCOON:009:1,2009-04-04T14:00:00Z,27.8398,-97.0727,0.0,3.3,164.0,5.2,'11111222,11111222,11111222' 
TCOON,ioos:station:TCOON:009:1,2009-04-04T15:00:00Z,27.8398,-97.0727,0.0,4.9,176.0,8.2,'11111222,11111222,11111222' 
TCOON,ioos:station:TCOON:009:1,2009-04-04T16:00:00Z,27.8398,-97.0727,0.0,3.9,169.0,5.2,'11111222,11111222,11111222' 
TCOON,ioos:station:TCOON:009:1,2009-04-04T17:00:00Z,27.8398,-97.0727,0.0,4.5,143.0,8.8,'11111222,11111222,11111222' 
TCOON,ioos:station:TCOON:009:1,2009-04-04T18:00:00Z,27.8398,-97.0727,0.0,4.3,150.0,6.6,'11111222,11111222,11111222' 
TCOON,ioos:station:TCOON:009:1,2009-04-04T19:00:00Z,27.8398,-97.0727,0.0,5.2,138.0,7.0,'11111222,11111222,11111222' 
TCOON,ioos:station:TCOON:009:1,2009-04-04T20:00:00Z,27.8398,-97.0727,0.0,5.2,125.0,7.3,'11111222,11111222,11111222' 
TCOON,ioos:station:TCOON:009:1,2009-04-04T21:00:00Z,27.8398,-97.0727,0.0,6.3,129.0,8.3,'11111222,11111222,11111222' 
TCOON,ioos:station:TCOON:009:1,2009-04-04T22:00:00Z,27.8398,-97.0727,0.0,4.6,115.0,6.4,'11111222,11111222,11111222' 
TCOON,ioos:station:TCOON:009:1,2009-04-04T23:00:00Z,27.8398,-97.0727,0.0,5.0,110.0,6.4,'11111222,11111222,11111222' 
TCOON,ioos:station:TCOON:009:1,2009-04-05T00:00:00Z,27.8398,-97.0727,0.0,4.9,116.0,7.1,'11111222,11111222,11111222' 
TCOON,ioos:station:TCOON:009:1,2009-04-05T01:00:00Z,27.8398,-97.0727,0.0,4.6,113.0,6.1,'11111222,11111222,11111222' 
TCOON,ioos:station:TCOON:009:1,2009-04-05T02:00:00Z,27.8398,-97.0727,0.0,4.0,122.0,5.6,'11111222,11111222,11111222' 
TCOON,ioos:station:TCOON:009:1,2009-04-05T03:00:00Z,27.8398,-97.0727,0.0,4.3,112.0,5.5,'11111222,11111222,11111222' 
TCOON,ioos:station:TCOON:009:1,2009-04-05T04:00:00Z,27.8398,-97.0727,0.0,3.4,123.0,5.0,'11111222,11111222,11111222' 
TCOON,ioos:station:TCOON:009:1,2009-04-05T05:00:00Z,27.8398,-97.0727,0.0,2.4,136.0,3.5,'11111222,11111222,11111222' 
TCOON,ioos:station:TCOON:009:1,2009-04-05T06:00:00Z,27.8398,-97.0727,0.0,3.6,149.0,4.7,'11111222,11111222,11111222' 
TCOON,ioos:station:TCOON:009:1,2009-04-05T07:00:00Z,27.8398,-97.0727,0.0,2.8,162.0,4.8,'11111222,11111222,11111222' 
TCOON,ioos:station:TCOON:009:1,2009-04-05T08:00:00Z,27.8398,-97.0727,0.0,3.5,173.0,5.8,'11111222,11111222,11111222' 
TCOON,ioos:station:TCOON:009:1,2009-04-05T09:00:00Z,27.8398,-97.0727,0.0,3.2,181.0,4.4,'11111222,11111222,11111222' 
TCOON,ioos:station:TCOON:009:1,2009-04-05T10:00:00Z,27.8398,-97.0727,0.0,2.8,173.0,4.2,'11111222,11111222,11111222' 
TCOON,ioos:station:TCOON:009:1,2009-04-05T11:00:00Z,27.8398,-97.0727,0.0,2.7,176.0,4.5,'11111222,11111222,11111222' 
TCOON,ioos:station:TCOON:009:1,2009-04-05T12:00:00Z,27.8398,-97.0727,0.0,3.8,185.0,5.2,'11111222,11111222,11111222' 
TCOON,ioos:station:TCOON:009:1,2009-04-05T13:00:00Z,27.8398,-97.0727,0.0,3.3,316.0,4.0,'11111222,11111222,11111222' 
TCOON,ioos:station:TCOON:009:1,2009-04-05T14:00:00Z,27.8398,-97.0727,0.0,4.6,17.0,5.3,'11111222,11111222,11111222' 
TCOON,ioos:station:TCOON:009:1,2009-04-05T15:00:00Z,27.8398,-97.0727,0.0,7.3,23.0,8.8,'11111222,11111222,11111222' 
TCOON,ioos:station:TCOON:009:1,2009-04-05T16:00:00Z,27.8398,-97.0727,0.0,4.7,23.0,6.1,'11111222,11111222,11111222' 
TCOON,ioos:station:TCOON:009:1,2009-04-05T17:00:00Z,27.8398,-97.0727,0.0,3.5,36.0,4.8,'11111222,11111222,11111222' 
TCOON,ioos:station:TCOON:009:1,2009-04-05T18:00:00Z,27.8398,-97.0727,0.0,9.6,14.0,11.8,'11111222,11111222,11111222' 
TCOON,ioos:station:TCOON:009:1,2009-04-05T19:00:00Z,27.8398,-97.0727,0.0,9.5,12.0,12.7,'11111222,11111222,11111222' 
TCOON,ioos:station:TCOON:009:1,2009-04-05T20:00:00Z,27.8398,-97.0727,0.0,8.2,359.0,10.7,'11111222,11111222,11111222' 
TCOON,ioos:station:TCOON:009:1,2009-04-05T21:00:00Z,27.8398,-97.0727,0.0,9.3,8.0,11.5,'11111222,11111222,11111222' 
TCOON,ioos:station:TCOON:009:1,2009-04-05T22:00:00Z,27.8398,-97.0727,0.0,9.1,8.0,11.2,'11111222,11111222,11111222' 
TCOON,ioos:station:TCOON:009:1,2009-04-05T23:00:00Z,27.8398,-97.0727,0.0,9.3,10.0,11.1,'11111222,11111222,11111222' 
TCOON,ioos:station:TCOON:009:1,2009-04-06T00:00:00Z,27.8398,-97.0727,0.0,9.3,360.0,11.9,'11111222,11144222,11111222' 
TCOON,ioos:station:TCOON:009:1,2009-04-06T01:00:00Z,27.8398,-97.0727,0.0,6.5,3.0,7.8,'11111222,11111222,11111222' 
TCOON,ioos:station:TCOON:009:1,2009-04-06T02:00:00Z,27.8398,-97.0727,0.0,7.2,8.0,9.7,'11111222,11111222,11111222' 
TCOON,ioos:station:TCOON:009:1,2009-04-06T03:00:00Z,27.8398,-97.0727,0.0,9.9,7.0,13.1,'11111222,11111222,11111222' 
TCOON,ioos:station:TCOON:009:1,2009-04-06T04:00:00Z,27.8398,-97.0727,0.0,8.9,10.0,11.3,'11111222,11111222,11111222' 
TCOON,ioos:station:TCOON:009:1,2009-04-06T05:00:00Z,27.8398,-97.0727,0.0,10.2,14.0,13.3,'11111222,11111222,11111222' 
TCOON,ioos:station:TCOON:009:1,2009-04-06T06:00:00Z,27.8398,-97.0727,0.0,6.4,11.0,8.4,'11111222,11111222,11111222' 
TCOON,ioos:station:TCOON:009:1,2009-04-06T07:00:00Z,27.8398,-97.0727,0.0,8.5,4.0,11.6,'11111222,11111222,11111222' 
TCOON,ioos:station:TCOON:009:1,2009-04-06T08:00:00Z,27.8398,-97.0727,0.0,8.9,4.0,11.8,'11111222,11111222,11111222' 
TCOON,ioos:station:TCOON:009:1,2009-04-06T09:00:00Z,27.8398,-97.0727,0.0,8.6,8.0,12.0,'11111222,11111222,11111222' 
TCOON,ioos:station:TCOON:009:1,2009-04-06T10:00:00Z,27.8398,-97.0727,0.0,6.3,3.0,8.0,'11111222,11111222,11111222' 
TCOON,ioos:station:TCOON:009:1,2009-04-06T11:00:00Z,27.8398,-97.0727,0.0,8.1,1.0,11.5,'11111222,11111222,11111222' 
TCOON,ioos:station:TCOON:009:1,2009-04-06T12:00:00Z,27.8398,-97.0727,0.0,8.8,1.0,10.3,'11111222,11111222,11111222' 
TCOON,ioos:station:TCOON:009:1,2009-04-06T13:00:00Z,27.8398,-97.0727,0.0,7.9,357.0,10.1,'11111222,11111222,11111222' 
TCOON,ioos:station:TCOON:009:1,2009-04-06T14:00:00Z,27.8398,-97.0727,0.0,7.5,356.0,11.0,'11111222,11111222,11111222' 
TCOON,ioos:station:TCOON:009:1,2009-04-06T15:00:00Z,27.8398,-97.0727,0.0,8.7,355.0,10.5,'11111222,11111222,11111222' 
TCOON,ioos:station:TCOON:009:1,2009-04-06T16:00:00Z,27.8398,-97.0727,0.0,9.3,357.0,12.5,'11111222,11111222,11111222' 
TCOON,ioos:station:TCOON:009:1,2009-04-06T17:00:00Z,27.8398,-97.0727,0.0,9.2,356.0,11.2,'11111222,11111222,11111222' 
TCOON,ioos:station:TCOON:009:1,2009-04-06T18:00:00Z,27.8398,-97.0727,0.0,9.0,350.0,11.0,'11111222,11111222,11111222' 
TCOON,ioos:station:TCOON:009:1,2009-04-06T19:00:00Z,27.8398,-97.0727,0.0,7.5,351.0,9.6,'11111222,11111222,11111222' 
TCOON,ioos:station:TCOON:009:1,2009-04-06T20:00:00Z,27.8398,-97.0727,0.0,7.3,347.0,8.5,'11111222,11111222,11111222' 
TCOON,ioos:station:TCOON:009:1,2009-04-06T21:00:00Z,27.8398,-97.0727,0.0,6.2,346.0,8.4,'11111222,11111222,11111222' 
TCOON,ioos:station:TCOON:009:1,2009-04-06T22:00:00Z,27.8398,-97.0727,0.0,6.5,359.0,8.2,'11111222,11111222,11111222' 
TCOON,ioos:station:TCOON:009:1,2009-04-06T23:00:00Z,27.8398,-97.0727,0.0,8.2,349.0,10.0,'11111222,11111222,11111222' 
TCOON,ioos:station:TCOON:009:1,2009-04-07T00:00:00Z,27.8398,-97.0727,0.0,7.1,351.0,8.4,'11111222,11111222,11111222' 
TCOON,ioos:station:TCOON:009:1,2009-04-07T01:00:00Z,27.8398,-97.0727,0.0,5.4,360.0,6.9,'11111222,11144222,11111222' 
TCOON,ioos:station:TCOON:009:1,2009-04-07T02:00:00Z,27.8398,-97.0727,0.0,4.9,354.0,6.7,'11111222,11111222,11111222' 
TCOON,ioos:station:TCOON:009:1,2009-04-07T03:00:00Z,27.8398,-97.0727,0.0,2.2,352.0,2.8,'11111222,11111222,11111222' 
TCOON,ioos:station:TCOON:009:1,2009-04-07T04:00:00Z,27.8398,-97.0727,0.0,2.0,306.0,2.5,'11111222,11111222,11111222' 
TCOON,ioos:station:TCOON:009:1,2009-04-07T05:00:00Z,27.8398,-97.0727,0.0,3.1,328.0,3.6,'11111222,11111222,11111222' 
TCOON,ioos:station:TCOON:009:1,2009-04-07T06:00:00Z,27.8398,-97.0727,0.0,2.5,338.0,3.0,'11111222,11111222,11111222' 
TCOON,ioos:station:TCOON:009:1,2009-04-07T07:00:00Z,27.8398,-97.0727,0.0,1.9,326.0,2.2,'11111222,11111222,11111222' 
TCOON,ioos:station:TCOON:009:1,2009-04-07T08:00:00Z,27.8398,-97.0727,0.0,0.9,359.0,1.4,'11111222,11111222,11111222' 
TCOON,ioos:station:TCOON:009:1,2009-04-07T09:00:00Z,27.8398,-97.0727,0.0,1.3,309.0,1.7,'11111222,11111222,11111222' 
TCOON,ioos:station:TCOON:009:1,2009-04-07T10:00:00Z,27.8398,-97.0727,0.0,1.3,327.0,1.6,'11111222,11111222,11111222' 
TCOON,ioos:station:TCOON:009:1,2009-04-07T11:00:00Z,27.8398,-97.0727,0.0,2.0,310.0,2.4,'11111222,11111222,11111222' 
TCOON,ioos:station:TCOON:009:1,2009-04-07T12:00:00Z,27.8398,-97.0727,0.0,2.3,318.0,2.7,'11111222,11111222,11111222' 
TCOON,ioos:station:TCOON:009:1,2009-04-07T13:00:00Z,27.8398,-97.0727,0.0,2.3,341.0,2.7,'11111222,11111222,11111222' 
TCOON,ioos:station:TCOON:009:1,2009-04-07T14:00:00Z,27.8398,-97.0727,0.0,2.3,5.0,3.1,'11111222,11111222,11111222' 
TCOON,ioos:station:TCOON:009:1,2009-04-07T15:00:00Z,27.8398,-97.0727,0.0,3.2,5.0,3.8,'11111222,11111222,11111222' 
TCOON,ioos:station:TCOON:009:1,2009-04-07T16:00:00Z,27.8398,-97.0727,0.0,2.4,58.0,2.8,'11111222,11111222,11111222' 
TCOON,ioos:station:TCOON:009:1,2009-04-07T17:00:00Z,27.8398,-97.0727,0.0,3.8,77.0,4.6,'11111222,11111222,11111222' 
TCOON,ioos:station:TCOON:009:1,2009-04-07T18:00:00Z,27.8398,-97.0727,0.0,4.0,77.0,5.1,'11111222,11111222,11111222' 
TCOON,ioos:station:TCOON:009:1,2009-04-07T19:00:00Z,27.8398,-97.0727,0.0,4.4,78.0,5.6,'11111222,11111222,11111222' 
TCOON,ioos:station:TCOON:009:1,2009-04-07T20:00:00Z,27.8398,-97.0727,0.0,4.1,95.0,5.3,'11111222,11111222,11111222' 
TCOON,ioos:station:TCOON:009:1,2009-04-07T21:00:00Z,27.8398,-97.0727,0.0,5.8,140.0,7.4,'11111222,11111222,11111222' 
TCOON,ioos:station:TCOON:009:1,2009-04-08T01:00:00Z,27.8398,-97.0727,0.0,3.8,161.0,5.7,'11111222,11111222,11111222' 
TCOON,ioos:station:TCOON:009:1,2009-04-08T02:00:00Z,27.8398,-97.0727,0.0,4.1,167.0,6.1,'11111222,11111222,11111222' 
TCOON,ioos:station:TCOON:009:1,2009-04-08T03:00:00Z,27.8398,-97.0727,0.0,4.2,173.0,6.8,'11111222,11111222,11111222' 
TCOON,ioos:station:TCOON:009:1,2009-04-08T04:00:00Z,27.8398,-97.0727,0.0,5.3,175.0,7.9,'11111222,11111222,11111222' 
TCOON,ioos:station:TCOON:009:1,2009-04-08T05:00:00Z,27.8398,-97.0727,0.0,7.7,180.0,10.6,'11111222,11111222,11111222' 
TCOON,ioos:station:TCOON:009:1,2009-04-08T06:00:00Z,27.8398,-97.0727,0.0,8.1,186.0,10.9,'11111222,11111222,11111222' 
TCOON,ioos:station:TCOON:009:1,2009-04-08T07:00:00Z,27.8398,-97.0727,0.0,7.1,193.0,10.0,'11111222,11111222,11111222' 
TCOON,ioos:station:TCOON:009:1,2009-04-08T08:00:00Z,27.8398,-97.0727,0.0,6.9,187.0,9.2,'11111222,11111222,11111222' 
TCOON,ioos:station:TCOON:009:1,2009-04-08T09:00:00Z,27.8398,-97.0727,0.0,5.8,197.0,8.5,'11111222,11111222,11111222' 
TCOON,ioos:station:TCOON:009:1,2009-04-08T10:00:00Z,27.8398,-97.0727,0.0,4.2,202.0,7.5,'11111222,11111222,11111222' 
TCOON,ioos:station:TCOON:009:1,2009-04-08T11:00:00Z,27.8398,-97.0727,0.0,4.7,197.0,7.5,'11111222,11111222,11111222' 
TCOON,ioos:station:TCOON:009:1,2009-04-08T12:00:00Z,27.8398,-97.0727,0.0,5.9,193.0,8.4,'11111222,11111222,11111222' 
TCOON,ioos:station:TCOON:009:1,2009-04-08T13:00:00Z,27.8398,-97.0727,0.0,5.1,194.0,7.4,'11111222,11111222,11111222' 
TCOON,ioos:station:TCOON:009:1,2009-04-08T14:00:00Z,27.8398,-97.0727,0.0,5.2,186.0,7.3,'11111222,11111222,11111222' 
TCOON,ioos:station:TCOON:009:1,2009-04-09T14:00:00Z,27.8398,-97.0727,0.0,5.7,179.0,10.1,'11111222,11111222,11111222' 
TCOON,ioos:station:TCOON:009:1,2009-04-09T15:00:00Z,27.8398,-97.0727,0.0,7.1,188.0,9.7,'11111222,11111222,11111222' 
TCOON,ioos:station:TCOON:009:1,2009-04-09T16:00:00Z,27.8398,-97.0727,0.0,8.1,182.0,99.0,'11111222,11111222,11144222' 
TCOON,ioos:station:TCOON:009:1,2009-04-09T17:00:00Z,27.8398,-97.0727,0.0,5.5,200.0,8.4,'11111222,11111222,11111222' 
TCOON,ioos:station:TCOON:009:1,2009-04-09T18:00:00Z,27.8398,-97.0727,0.0,7.7,183.0,11.0,'11111222,11111222,11111222' 
TCOON,ioos:station:TCOON:009:1,2009-04-09T19:00:00Z,27.8398,-97.0727,0.0,8.0,178.0,11.3,'11111222,11111222,11111222' 
TCOON,ioos:station:TCOON:009:1,2009-04-09T20:00:00Z,27.8398,-97.0727,0.0,7.1,170.0,11.2,'11111222,11111222,11111222' 
TCOON,ioos:station:TCOON:009:1,2009-04-09T21:00:00Z,27.8398,-97.0727,0.0,8.5,171.0,13.4,'11111222,11111222,11111222' 
TCOON,ioos:station:TCOON:009:1,2009-04-09T22:00:00Z,27.8398,-97.0727,0.0,8.2,174.0,11.9,'11111222,11111222,11111222' 
TCOON,ioos:station:TCOON:009:1,2009-04-09T23:00:00Z,27.8398,-97.0727,0.0,7.3,172.0,10.9,'11111222,11111222,11111222' 
TCOON,ioos:station:TCOON:009:1,2009-04-10T00:00:00Z,27.8398,-97.0727,0.0,7.4,172.0,11.8,'11111222,11111222,11111222' 
TCOON,ioos:station:TCOON:009:1,2009-04-10T01:00:00Z,27.8398,-97.0727,0.0,4.9,165.0,9.1,'11111222,11111222,11111222' 
TCOON,ioos:station:TCOON:009:1,2009-04-10T02:00:00Z,27.8398,-97.0727,0.0,5.2,171.0,7.9,'11111222,11111222,11111222' 
TCOON,ioos:station:TCOON:009:1,2009-04-10T03:00:00Z,27.8398,-97.0727,0.0,7.1,175.0,10.1,'11111222,11111222,11111222' 
TCOON,ioos:station:TCOON:009:1,2009-04-10T04:00:00Z,27.8398,-97.0727,0.0,5.0,176.0,7.7,'11111222,11111222,11111222' 
TCOON,ioos:station:TCOON:009:1,2009-04-10T05:00:00Z,27.8398,-97.0727,0.0,5.1,182.0,7.1,'11111222,11111222,11111222' 
TCOON,ioos:station:TCOON:009:1,2009-04-10T06:00:00Z,27.8398,-97.0727,0.0,5.0,179.0,7.4,'11111222,11111222,11111222' 
TCOON,ioos:station:TCOON:009:1,2009-04-10T07:00:00Z,27.8398,-97.0727,0.0,5.5,181.0,8.7,'11111222,11111222,11111222' 
TCOON,ioos:station:TCOON:009:1,2009-04-10T08:00:00Z,27.8398,-97.0727,0.0,7.4,185.0,10.4,'11111222,11111222,11111222' 
TCOON,ioos:station:TCOON:009:1,2009-04-10T09:00:00Z,27.8398,-97.0727,0.0,4.2,196.0,6.0,'11111222,11111222,11111222' 
TCOON,ioos:station:TCOON:009:1,2009-04-10T10:00:00Z,27.8398,-97.0727,0.0,2.7,197.0,3.7,'11111222,11111222,11111222' 
TCOON,ioos:station:TCOON:009:1,2009-04-10T11:00:00Z,27.8398,-97.0727,0.0,1.5,201.0,2.7,'11111222,11111222,11111222' 
TCOON,ioos:station:TCOON:009:1,2009-04-10T12:00:00Z,27.8398,-97.0727,0.0,0.6,141.0,1.0,'11111222,11111222,11111222' 
TCOON,ioos:station:TCOON:009:1,2009-04-10T13:00:00Z,27.8398,-97.0727,0.0,1.1,63.0,1.3,'11111222,11111222,11111222' 
TCOON,ioos:station:TCOON:009:1,2009-04-10T14:00:00Z,27.8398,-97.0727,0.0,2.1,66.0,2.4,'11111222,11111222,11111222' 
TCOON,ioos:station:TCOON:009:1,2009-04-10T15:00:00Z,27.8398,-97.0727,0.0,4.4,87.0,5.4,'11111222,11111222,11111222' 